Regional Weather Roundup
Issued by NWS

Home | Current Version | Previous Version | Text Only | Print | Product List | Glossary On
Versions: 1 2 3 4 5 6 7 8 9 10 11 12 13 14 15 16 17 18 19 20 21 22 23 24 25 26 27 28 29 30 31 32 33 34 35 36 37 38 39 40 41 42 43 44 45 46 47 48 49 50
000
ASUS43 KLMK 220910
RWRKY
KENTUCKY REGIONAL WEATHER ROUNDUP
NATIONAL WEATHER SERVICE LOUISVILLE KY
500 AM EDT SAT JUL 22 2017

NOTE "FAIR" INDICATES FEW OR NO CLOUDS BELOW 12,000 FEET
WITH NO SIGNIFICANT WEATHER AND/OR OBSTRUCTIONS TO VISIBILITY.

KYZ001>023-026-027-061>063-070>075-221000-
WESTERN AND SOUTH CENTRAL KENTUCKY

CITY           SKY/WX    TMP DP  RH WIND       PRES   REMARKS
PADUCAH        CLEAR     80  74  81 SW3       29.91R
HENDERSON      CLEAR     77  75  93 SW5       29.92R
OWENSBORO      CLEAR     78  76  93 CALM      29.93R
HOPKINSVILLE   CLEAR     79  76  90 SW6       29.94R
BOWLING GREEN  CLEAR     81  77  88 SW5       29.95R
GLASGOW        CLEAR     76  76 100 CALM      29.96R
$$

KYZ024-025-028>034-038-045-046-053-221000-
NORTH CENTRAL KENTUCKY

CITY           SKY/WX    TMP DP  RH WIND       PRES   REMARKS
LOUISVILLE/SDF PTCLDY    83  75  77 SW8       29.91S HX  90
LOUISVILLE/LOU PTCLDY    82  77  84 SW7       29.92S HX  90
FORT KNOX      PTCLDY    76  74  94 SW6       29.92S
$$

KYZ035>037-039>044-047>052-055>060-089>105-221000-
NORTHEAST KENTUCKY

CITY           SKY/WX    TMP DP  RH WIND       PRES   REMARKS
LEXINGTON      CLEAR     77  71  82 SW6       29.95S
COVINGTON      CLOUDY    77  75  93 SW5       29.91S
FRANKFORT      PTCLDY    77  72  84 SW6       29.93S
$$

KYZ054-064>069-076>088-106>120-221000-
SOUTHEAST KENTUCKY

CITY           SKY/WX    TMP DP  RH WIND       PRES   REMARKS
JACKSON        CLEAR     75  71  87 CALM      29.98F
LONDON         CLEAR     73  70  90 CALM      29.99R
SOMERSET       CLEAR     72  72 100 CALM      29.98S
MIDDLESBORO    CLEAR     70  70 100 CALM      30.01S
MONTICELLO     SUNNY     71  71 100 N8        29.99S
$$





USA.gov is the U.S. government's official web portal to all federal, state and local government web resources and services.